Regional Weather Roundup
Issued by NWS

Home | Current Version | Previous Version | Graphics & Text | Print | Product List | Glossary On
Versions: 1 2 3 4 5 6 7 8 9 10 11 12 13 14 15 16 17 18 19 20 21 22 23 24 25 26 27 28 29 30 31 32 33 34 35 36 37 38 39 40 41 42 43 44 45 46 47 48 49 50
357
ASUS45 KSLC 170010
RWRUT

UTAH REGIONAL WEATHER ROUNDUP
NATIONAL WEATHER SERVICE SALT LAKE CITY UT
600 PM MDT WED AUG 16 2017

UTZ001>011-023>025-170100-

NORTHERN UTAH

CITY           SKY/WX    TMP DP  RH WIND       PRES   REMARKS
BRIGHAM CITY   MOSUNNY   83  27  12 SW5       30.04S
HILL AFB       SUNNY     83  34  17 NW6       30.07S
LOGAN          MOSUNNY   86  36  16 S6        30.03F
OGDEN          MOSUNNY   85  37  18 NW6       30.03F
SALT LAKE CITY PTSUNNY   88  35  15 NW8       30.02S
TOOELE VALLEY  MOSUNNY   84  41  21 N10       30.03F
WENDOVER       PTSUNNY   85  35  16 SE8       30.02F
HEBER CITY     PTSUNNY   81  36  19 NW5       30.11F
WEST JORDAN    MOSUNNY   84  50  31 NW8       30.06S

$$

UTZ011>015-024>027-170100-

CENTRAL/NORTHEAST UTAH

CITY           SKY/WX    TMP DP  RH WIND       PRES   REMARKS
PROVO AIRPORT  PTSUNNY   81  46  30 VRB6      30.05F
MOAB/CANYONLAN SUNNY     89  17   7 W13       30.01S
DELTA          PTSUNNY   84  32  15 NW7       30.05S
PRICE          CLOUDY    79  33  19 W7        30.12S
RICHFIELD      SUNNY     81  32  17 CALM      30.11S
ROOSEVELT      SUNNY     81  37  21 NE12      30.12S
VERNAL         SUNNY     78  41  26 N6        30.10F

$$

UTZ013>016-019>022-027-170100-

SOUTHERN UTAH

CITY           SKY/WX    TMP DP  RH WIND       PRES   REMARKS
BRYCE CANYON   CLOUDY    70  35  27 N10       30.26F
CEDAR CITY     MOSUNNY   84  33  16 W7        30.09S
MILFORD        PTSUNNY   85  34  16 NW10      30.06R
ST GEORGE      MOCLDY    94  35  12 VRB6      29.90F
HANKSVILLE     PTSUNNY   84  32  15 NW20      30.04S
KANAB          SUNNY     88  27  11 S8        30.09F
BLANDING       SUNNY     82  27  13 S10       30.19S

$$

REGIONAL REPORTS     COLORADO/ARIZONA

CITY           SKY/WX    TMP DP  RH WIND       PRES   REMARKS
CRAIG, CO      SUNNY     78  27  15 NW7       30.16F
GRAND JUNCTION SUNNY     85  33  15 NW13      30.03F
RIFLE, CO      MOSUNNY   80  37  21 N9        30.09F
MONTROSE, CO   SUNNY     81  35  19 N7        30.12S
CORTEZ, CO     SUNNY     82  21  10 NW6       30.13F
COLORADO CITY    N/A     90  32  12 S3        30.08S
PAGE, AZ       SUNNY     91  28  10 N8        30.00F
GRAND CANYON   SUNNY     76  32  20 S12G18    30.21F
KINGMAN, AZ    SUNNY     90  40  17 SW12      29.97F
FLAGSTAFF, AZ  MOSUNNY   72  36  26 SW10      30.25F

$$

REGIONAL REPORTS    NEVADA/IDAHO/WYOMING

CITY           SKY/WX    TMP DP  RH WIND       PRES   REMARKS
LAS VEGAS, NV  MOSUNNY   97  39  13 VRB3      29.86F HX  92
ELY, NY        CLOUDY    65  48  54 S14       30.20F
ELKO, NV       MOSUNNY   84  33  16 W8        30.06S
POCATELLO, ID  MOSUNNY   86  32  14 W14       30.03F
BURLEY, ID     SUNNY     83  40  21 W9        30.00F
FORT BRIDGER,    N/A     75  33  21 NW9       30.24S
EVANSTON, WY   CLOUDY    74  34  23 W17       30.22S
ROCK SPRINGS,  SUNNY     75  28  17 N5        30.18S
KEMMERER, WY     N/A     73  30  20 W16G23    30.22S

$$




USA.gov is the U.S. government's official web portal to all federal, state and local government web resources and services.